[[{"header":{"parameterUnit":"m.s-1","parameterCategory":1,"la1":30.2991,"la2":30.254,"lo1":-89.0895,"lo2":-89.0444,"dy":0.0017,"dx":0.0017,"nx":28,"ny":28,"refTime":"2024-04-18T21:00:00:Z","depth":0,"parameterNumber":2,"parameterNumberName":"U-component_of_WINDS"},"data":[0,0,0,0,0,0,0,0,0,0,0,0,0,0,0,0,0,0,0,0,0,0,0,0,0,0,0,0,0,0,0,0,0,0,0,0,0,0,0,0,0,0,0,0,0,0,0,0,0,0,0,0,0,0,0,0,0,0,0.0189,0.0189,0,0.0248,0.0248,0.0249,0.0236,0.0235,0.0234,0.0232,0.0297,0.03,0.0303,0,0,0,0,0,0,0,0,0,0,0,0,0,0.0069,0.0071,0.0189,0.019,0.019,0.0248,0.0248,0.0249,0.0236,0.0235,0.0233,0.0232,0.0296,0.03,0.0303,0,0,0,0,0,0,0,0,0,0,0,0,0,0.0124,0.0072,0.0189,0.019,0.0191,0.0247,0.0249,0.025,0.0236,0.0235,0.0233,0.0231,0.0295,0.0299,0.0304,0.0363,0,0,0.0316,0.0318,0,0,0,0,0,0,0,0,0.0121,0.0128,0.0189,0.019,0.0191,0.0233,0.023,0.0288,0.0237,0.0219,0.0232,0.023,0.0277,0.0283,0.0298,0.0366,0.0369,0.0317,0.0319,0.0321,0.0322,0,0,0,0,0,0,0,0.0117,0.0126,0.0212,0.019,0.0192,0.019,0.0196,0.0241,0.0257,0.0221,0.022,0.0227,0.0278,0.0294,0.0299,0.037,0.0317,0.032,0.0323,0.0324,0.0491,0.0493,0,0,0,0,0,0,0.0112,0.0122,0.021,0.0214,0.0151,0.0193,0.02,0.0221,0.0257,0.026,0.0228,0.0226,0.0288,0.0295,0.0302,0.0374,0.0321,0.0325,0.0327,0.0489,0.0491,0.0493,0,0,0,0,0,0,0.0109,0.012,0.0208,0.0168,0.0179,0.0197,0.0221,0.0223,0.0239,0.0262,0.0266,0.0241,0.0287,0.0296,0.0348,0.0376,0.0327,0.0331,0.0487,0.049,0.0492,0.052,0,0,0,0,0,0,0.0106,0.0119,0.0141,0.0169,0.0181,0.0252,0.0223,0.0226,0.0246,0.0244,0.0276,0.0279,0.0286,0.0342,0.0352,0.0381,0.0334,0.0484,0.0488,0.0491,0.0516,0.0523,0.0529,0,0,0,0,0,0.0101,0.0147,0.0142,0.0152,0.0209,0.0254,0.0261,0.0266,0.0248,0.0271,0.0286,0.0278,0.0371,0.0347,0.0359,0.0389,0.0482,0.0487,0.0491,0.0513,0.0522,0.0529,0,0,0,0,0,0,0.0123,0.015,0.0145,0.0201,0.0225,0.0251,0.028,0.0275,0.0306,0.0302,0.0309,0.0317,0.037,0.0385,0.0357,0.0449,0.0424,0.0431,0.0438,0.0446,0.0452,0.0447,0.0337,0,0,0,0,0,0.0134,0.0167,0.019,0.0236,0.0249,0.0262,0.0282,0.0284,0.031,0.032,0.0339,0.0366,0.0401,0.0424,0.0458,0.0518,0.0525,0.0545,0.0551,0.0556,0.0563,0.0596,0.0606,0.0507,0.0507,0.0507,0,0,0.0158,0.0177,0.0197,0.0241,0.026,0.0295,0.0271,0.0309,0.0336,0.0327,0.0377,0.0391,0.0421,0.0478,0.0504,0.0492,0.0591,0.0562,0.0566,0.0569,0.0602,0.0611,0.0619,0.051,0.051,0.0509,0,0,0.0219,0.0236,0.0277,0.0296,0.0324,0.0333,0.0343,0.037,0.0379,0.0429,0.0423,0.0455,0.0516,0.0538,0.0557,0.0626,0.062,0.0637,0.067,0.0703,0.0711,0.0717,0.0743,0.0752,0.0642,0.0642,0.0643,0,0.0245,0.0296,0.0299,0.0338,0.0358,0.0349,0.0392,0.0411,0.0449,0.0464,0.045,0.0525,0.0545,0.0607,0.0624,0.0639,0.0652,0.0633,0.0709,0.0716,0.0722,0.0747,0.0756,0.0644,0.0644,0.0644,0.0644,0,0.0327,0.0363,0.0393,0.0429,0.0452,0.0492,0.0503,0.0526,0.0526,0.0537,0.0588,0.0612,0.065,0.0665,0.0666,0.0727,0.0719,0.0707,0.0682,0.0733,0.0757,0.0766,0.0647,0.0646,0.0646,0.0645,0,0,0.0404,0.044,0.0451,0.0468,0.0498,0.0527,0.0567,0.0603,0.0624,0.0651,0.0686,0.0737,0.0726,0.0747,0.075,0.0779,0.0833,0.0764,0.0765,0.0777,0.0904,0.0913,0.0924,0.083,0.0831,0.0833,0.0901,0,0.0468,0.0538,0.0541,0.0605,0.0639,0.0632,0.0667,0.0691,0.0702,0.0733,0.0746,0.0782,0.0764,0.0777,0.0805,0.0821,0.0859,0.0816,0.0864,0.0865,0.0857,0.0936,0.0946,0.1009,0.091,0.0912,0.0913,0,0.0552,0.058,0.0647,0.0673,0.0687,0.0719,0.0752,0.0782,0.0809,0.0815,0.0839,0.0838,0.0881,0.0854,0.0914,0.0885,0.0904,0.0915,0.0918,0.0923,0.0893,0.0944,0.1029,0.1039,0.0927,0.0926,0.0925,0,0.0602,0.0657,0.0704,0.0718,0.0749,0.0772,0.0786,0.0811,0.0833,0.0862,0.0877,0.0912,0.0931,0.0959,0.0968,0.0948,0.1028,0.1002,0.1036,0.1036,0.1054,0.1053,0.1145,0.1065,0.1065,0.1065,0.1065,0,0.0673,0.0715,0.0726,0.0755,0.0802,0.0807,0.0853,0.0866,0.0889,0.0921,0.0917,0.0949,0.0958,0.0992,0.0999,0.1048,0.1057,0.1064,0.1066,0.1065,0.1064,0.1079,0.1075,0.1068,0.1067,0.1067,0.1066,0,0.0737,0.0746,0.0797,0.0822,0.083,0.0863,0.0885,0.0914,0.0924,0.0966,0.0976,0.0993,0.1032,0.1043,0.109,0.1096,0.1153,0.1151,0.1144,0.1144,0.1178,0.1175,0.1283,0.1298,0.1208,0.1209,0.1209,0,0.0782,0.0813,0.0842,0.0863,0.0878,0.0911,0.0933,0.0939,0.0962,0.0995,0.102,0.1058,0.1089,0.1152,0.1169,0.1205,0.1204,0.124,0.121,0.1208,0.1206,0.1204,0.1208,0.1246,0.1246,0.1247,0.1248,0,0.0861,0.0864,0.0895,0.0927,0.0953,0.0979,0.1005,0.1022,0.1032,0.1059,0.1097,0.1121,0.1169,0.1207,0.1244,0.126,0.1257,0.1257,0.1267,0.1266,0.1261,0.1265,0.116,0.1255,0.1254,0.1253,0.1253,0.1253,0.0918,0.0945,0.0969,0.1004,0.1023,0.1047,0.1075,0.1089,0.1121,0.1159,0.1161,0.1204,0.1231,0.1279,0.1298,0.1332,0.1322,0.1336,0.134,0.1343,0.1346,0.1255,0.1339,0.1339,0.1339,0.1338,0.1338,0,0.0997,0.1012,0.1044,0.1079,0.1106,0.1098,0.1126,0.115,0.1187,0.1212,0.1242,0.1287,0.1324,0.1344,0.1382,0.1405,0.1405,0.1415,0.1414,0.1418,0.1353,0.1341,0.1415,0.1415,0.1415,0.1415,0.1415,0.1415,0.1042,0.1088,0.1094,0.1151,0.1166,0.1207,0.1223,0.1246,0.1266,0.1316,0.1346,0.1358,0.1382,0.1421,0.1455,0.146,0.1475,0.1487,0.1491,0.143,0.1422,0.1415,0.1404,0.1489,0.1489,0.1553,0.1553,0.1554]},{"header":{"parameterUnit":"m.s-1","parameterCategory":1,"la1":30.2991,"la2":30.254,"lo1":-89.0895,"lo2":-89.0444,"dy":0.0017,"dx":0.0017,"nx":28,"ny":28,"refTime":"2024-04-18T21:00:00:Z","depth":0,"parameterNumber":3,"parameterNumberName":"V-component_of_WINDS"},"data":[0,0,0,0,0,0,0,0,0,0,0,0,0,0,0,0,0,0,0,0,0,0,0,0,0,0,0,0,0,0,0,0,0,0,0,0,0,0,0,0,0,0,0,0,0,0,0,0,0,0,0,0,0,0,0,0,0,0,1.1552,1.1551,0,1.151,1.151,1.1509,1.1463,1.1462,1.1462,1.1461,1.1417,1.1416,1.1415,0,0,0,0,0,0,0,0,0,0,0,0,0,1.159,1.159,1.1552,1.1551,1.1551,1.151,1.151,1.1509,1.1463,1.1462,1.1461,1.1461,1.1417,1.1416,1.1415,0,0,0,0,0,0,0,0,0,0,0,0,0,1.1564,1.159,1.1552,1.1523,1.152,1.151,1.151,1.1509,1.1463,1.1462,1.1461,1.146,1.1417,1.1416,1.1415,1.143,0,0,1.1413,1.1412,0,0,0,0,0,0,0,0,1.1565,1.1562,1.1528,1.1525,1.1522,1.1491,1.1507,1.1483,1.1463,1.1485,1.1461,1.146,1.1442,1.1439,1.1433,1.1428,1.1426,1.1413,1.1412,1.1412,1.1412,0,0,0,0,0,0,0,1.1567,1.1564,1.1535,1.1527,1.1524,1.1512,1.1507,1.1502,1.1469,1.1483,1.1479,1.1475,1.144,1.1434,1.1432,1.1426,1.1413,1.1412,1.1411,1.1411,1.1431,1.1432,0,0,0,0,0,0,1.1573,1.1566,1.1537,1.1534,1.1541,1.1512,1.1506,1.1502,1.1469,1.1464,1.1476,1.1473,1.1436,1.1433,1.143,1.1446,1.1412,1.1411,1.1411,1.143,1.1431,1.1432,0,0,0,0,0,0,1.1574,1.1571,1.1538,1.1549,1.1544,1.1512,1.1507,1.1501,1.1496,1.1464,1.1458,1.1476,1.1435,1.1431,1.1431,1.1444,1.1411,1.141,1.1429,1.143,1.1432,1.1477,0,0,0,0,0,0,1.1576,1.1572,1.1578,1.1549,1.1543,1.154,1.1508,1.1501,1.1494,1.149,1.1463,1.1457,1.1434,1.1432,1.143,1.1442,1.1409,1.1427,1.1429,1.1431,1.1475,1.148,1.1485,0,0,0,0,0,1.1577,1.1592,1.1578,1.1575,1.155,1.1541,1.1538,1.1511,1.1496,1.1501,1.1481,1.1458,1.1443,1.1433,1.143,1.1442,1.1427,1.1429,1.1431,1.1472,1.1479,1.1485,0,0,0,0,0,0,1.1621,1.1587,1.1572,1.1578,1.1563,1.1533,1.1539,1.1519,1.1508,1.1504,1.1472,1.1466,1.1469,1.1455,1.1445,1.1454,1.1431,1.1433,1.1464,1.147,1.1475,1.1479,1.1409,0,0,0,0,0,1.1632,1.1628,1.1598,1.1606,1.16,1.1571,1.1566,1.1547,1.153,1.1523,1.1503,1.1487,1.1478,1.1473,1.1464,1.1472,1.1466,1.1479,1.1484,1.1489,1.1491,1.1495,1.15,1.144,1.144,1.144,0,0,1.1653,1.1634,1.1634,1.1615,1.1601,1.1597,1.1566,1.1563,1.156,1.1522,1.1521,1.1506,1.1485,1.149,1.1491,1.1478,1.1506,1.1492,1.1496,1.1495,1.1498,1.1504,1.1509,1.1442,1.1441,1.1441,0,0,1.1691,1.1676,1.1681,1.1668,1.1648,1.1629,1.163,1.1604,1.1592,1.1591,1.1563,1.1558,1.1544,1.1531,1.1522,1.1556,1.1534,1.1553,1.1581,1.1585,1.159,1.1594,1.1606,1.1611,1.1555,1.1556,1.1556,0,1.172,1.1714,1.1686,1.1686,1.1678,1.1645,1.165,1.1638,1.1616,1.1611,1.1598,1.158,1.1564,1.1565,1.1573,1.1567,1.1567,1.1556,1.1592,1.1596,1.1599,1.161,1.1615,1.1558,1.1558,1.1557,1.1557,0,1.1751,1.1747,1.1754,1.1734,1.1727,1.1729,1.1701,1.1698,1.168,1.1662,1.166,1.164,1.1626,1.1625,1.1607,1.1623,1.1616,1.1598,1.1574,1.1608,1.1618,1.1622,1.1562,1.1561,1.156,1.1559,0,0,1.1814,1.178,1.1783,1.1773,1.1749,1.1745,1.1746,1.1733,1.1731,1.1716,1.1716,1.1705,1.1688,1.1678,1.1658,1.1662,1.169,1.1643,1.1642,1.1653,1.1708,1.1722,1.1728,1.1676,1.1677,1.1677,1.171,0,1.1848,1.1847,1.1823,1.1829,1.1826,1.1794,1.1795,1.178,1.1763,1.1757,1.1739,1.1732,1.171,1.1704,1.1706,1.1687,1.1701,1.1684,1.1675,1.1675,1.1682,1.1733,1.1748,1.178,1.1713,1.1714,1.1715,0,1.1886,1.1875,1.1882,1.1857,1.1855,1.1856,1.1842,1.1837,1.182,1.1807,1.1797,1.1775,1.1774,1.1751,1.1749,1.1738,1.1733,1.1723,1.1723,1.1722,1.1697,1.1733,1.1789,1.1794,1.172,1.172,1.1719,0,1.1932,1.1919,1.1921,1.1914,1.1886,1.1888,1.1876,1.1857,1.1851,1.1839,1.1835,1.1822,1.1816,1.1807,1.1782,1.1767,1.1782,1.1758,1.1772,1.1773,1.1777,1.1777,1.1833,1.1773,1.1773,1.1773,1.1773,0,1.1972,1.1977,1.1942,1.1943,1.1948,1.192,1.1925,1.191,1.1894,1.1892,1.1864,1.1862,1.1829,1.1824,1.1804,1.1805,1.1802,1.1792,1.1787,1.1795,1.1796,1.1791,1.1789,1.1774,1.1774,1.1774,1.1774,0,1.2024,1.2001,1.2001,1.1975,1.1968,1.1973,1.195,1.1951,1.1933,1.193,1.1928,1.19,1.1892,1.1866,1.1852,1.1839,1.1846,1.1836,1.1853,1.1849,1.1865,1.1864,1.192,1.1927,1.1863,1.1864,1.1864,0,1.2051,1.2055,1.2029,1.2026,1.2016,1.2011,1.2005,1.1977,1.1972,1.1953,1.1955,1.1945,1.1936,1.1925,1.1903,1.1892,1.1881,1.1902,1.1879,1.1888,1.1882,1.1882,1.1883,1.1907,1.1908,1.1908,1.1909,0,1.2102,1.209,1.2083,1.2072,1.2066,1.2056,1.2044,1.2043,1.2011,1.2007,1.1999,1.1992,1.1978,1.1969,1.1954,1.1942,1.192,1.1916,1.1919,1.1927,1.1937,1.1932,1.1866,1.1915,1.1914,1.1914,1.1913,1.1913,1.2142,1.2144,1.2127,1.212,1.2108,1.2098,1.2097,1.2079,1.2073,1.206,1.2043,1.2038,1.202,1.1999,1.1988,1.1983,1.1971,1.1975,1.1976,1.1977,1.1982,1.1938,1.198,1.198,1.1979,1.1979,1.1979,0,1.2192,1.2179,1.2173,1.2158,1.2153,1.2133,1.2119,1.2116,1.2112,1.2097,1.2089,1.2081,1.2072,1.2049,1.2038,1.2038,1.2028,1.2036,1.2036,1.2034,1.1992,1.1991,1.2045,1.2045,1.2045,1.2045,1.2045,1.2045,1.2217,1.2219,1.2206,1.2202,1.2189,1.2184,1.2178,1.2168,1.2157,1.2149,1.2142,1.2127,1.211,1.2097,1.2088,1.2082,1.2079,1.2091,1.2081,1.2043,1.2037,1.2031,1.2029,1.209,1.209,1.2123,1.2123,1.2123]}]]